sat.trackr.live / text

‹ back to catalog

STARLINK-4746

NORAD 53846 · 2022-114AE

PAYLOAD ACTIVE UNKNOWN

§ Identity

Operator
Country
US
Launch date
2022-09-19
Launch site
AFETR
Launch vehicle
Mass (kg)
RCS (m²)

Purposes: comms

External: N2YO · Heavens-Above · Gunter

§ Orbital elements

Epoch: 2026-09-20T22:00:03.000096Z

Period
95.01 min
Inclination
53.1604°
Eccentricity
0.0001485
Mean motion
15.15657949 rev/d
Perigee alt
518.0 km
Apogee alt
520.0 km
Semi-major
6,897.1 km
B*
1.2862e-3
RAAN
136.6935°
Arg perigee
107.5911°
Mean anomaly
96.1629°
Rev number
575

§ Raw data

STARLINK-47461 53846U 22114AE  26263.91670139  .00024533  00000+0  12862-2 0  99982 53846  53.1604 136.6935 0001485 107.5911  96.1629 15.15657949  5754

JSON: /api/v1/satellites/53846 · /tle

For live sub-satellite position, see the globe view (requires WebGL).

§ Visibility from observer

Set your observer location to see the next 7 days of passes ≥ 10°. The values pass through the URL so the page stays shareable.

No JS? Fill the form by hand. The geolocation button needs JavaScript.